sat.trackr.live / text

‹ back to catalog

STARLINK-31079

NORAD 58598 · 2023-200K

PAYLOAD ACTIVE UNKNOWN

§ Identity

Operator
Country
US
Launch date
2023-12-19
Launch site
AFETR
Launch vehicle
Mass (kg)
RCS (m²)

Purposes: comms

External: N2YO · Heavens-Above · Gunter

§ Orbital elements

Epoch: 2026-05-25T04:06:14.194368Z

Period
92.29 min
Inclination
42.9779°
Eccentricity
0.0031929
Mean motion
15.60377388 rev/d
Perigee alt
365.0 km
Apogee alt
408.2 km
Semi-major
6,764.7 km
B*
2.8738e-3
RAAN
54.1930°
Arg perigee
201.3331°
Mean anomaly
158.6203°
Rev number
13,580

§ Raw data

STARLINK-310791 58598U 23200K   26145.17099762  .00255487  00000+0  28738-2 0  99912 58598  42.9779  54.1930 0031929 201.3331 158.6203 15.60377388135804

JSON: /api/v1/satellites/58598 · /tle

For live sub-satellite position, see the globe view (requires WebGL).

§ Visibility from observer

Set your observer location to see the next 7 days of passes ≥ 10°. The values pass through the URL so the page stays shareable.

No JS? Fill the form by hand. The geolocation button needs JavaScript.